Regional Weather Roundup
Issued by NWS

Home | Current Version | Previous Version | Graphics & Text | Print | Product List | Glossary On
Versions: 1 2 3 4 5 6 7 8 9 10 11 12 13 14 15 16 17 18 19 20 21 22 23 24 25 26 27 28 29 30 31 32 33 34 35 36 37 38 39 40 41 42 43 44 45 46 47 48 49 50
000
ASUS45 KBOI 251210
RWRID

IDAHO REGIONAL WEATHER ROUNDUP
NATIONAL WEATHER SERVICE BOISE ID
600 AM MDT MON MAY 25 2015

NOTE: "FAIR" INDICATES FEW OR NO CLOUDS BELOW 12000 FEET
WITH NO SIGNIFICANT WEATHER AND/OR OBSTRUCTIONS TO VISIBILITY

IDZ012-014-251300-
SOUTHWEST IDAHO


CITY           SKY/WX    TMP DP  RH WIND       PRES   REMARKS
BOISE          CLEAR     54  46  74 SE7       29.86S
CALDWELL       CLEAR     50  39  66 SE3       29.87R
MOUNTAIN HOME  CLEAR     46  43  87 E5        29.88R
$$

IDZ016-017-251300-
SOUTHCENTRAL IDAHO


CITY           SKY/WX    TMP DP  RH WIND       PRES   REMARKS
BURLEY         CLOUDY    47  43  86 CALM      29.91S
JEROME         CLEAR     47  43  86 E7        29.92R
TWIN FALLS     PTCLDY    51  43  74 S10       29.89S
$$

IDZ019>023-251300-
SOUTHEAST IDAHO


CITY           SKY/WX    TMP DP  RH WIND       PRES   REMARKS
IDAHO FALLS    FOG       46  46 100 SW3       29.94S VSB 1/4
POCATELLO      CLEAR     45  44  97 S7        29.94R
REXBURG        PTCLDY    45  42  89 S5        29.94R
$$

IDZ006-010-011-018-031-032-251300-
CENTRAL IDAHO MOUNTAINS


CITY           SKY/WX    TMP DP  RH WIND       PRES   REMARKS
MCCALL         CLEAR     39  36  89 CALM      29.92S
HAILEY         PTCLDY    43  41  93 NW5       29.97S
STANLEY          N/A     32  29  88 CALM      30.01S
SALMON         CLEAR     39  37  93 CALM      29.94S
CHALLIS        PTCLDY    41  36  82 CALM      29.96R
$$

IDZ002-004-006-007-026-251300-
NORTHERN IDAHO


CITY           SKY/WX    TMP DP  RH WIND       PRES   REMARKS
LEWISTON       MOCLDY    58  53  84 CALM      29.84R
LOWELL           N/A     51  49  92 CALM      29.89S
COEUR D`ALENE  CLOUDY    55  50  82 W9        29.88R
MULLAN PASS    CLOUDY    46  37  71 S5        29.93F
$$



USA.gov is the U.S. government's official web portal to all federal, state and local government web resources and services.